Weather History for KE11 - May, 2013

Change the Weather History Date:

Sunday, May 26, 2013

  Actual Average (KMAF) Record (KMAF)
Temperature  
Mean Temperature 79 °F 76 °F  
Max Temperature 95 °F 90 °F 100 °F (1991)
Min Temperature 63 °F 63 °F 48 °F (1950)
Cooling Degree Days 14 12  
Month to date cooling degree days 221  
Year to date cooling degree days 329  
Growing Degree Days 29 (Base 50)    
Moisture  
Dew Point 59 °F    
Average Humidity 54    
Maximum Humidity 84    
Minimum Humidity 25    
Precipitation  
Precipitation 0.00 in 0.07 in 2.97 in (1941)
Month to date precipitation 1.36  
Year to date precipitation 3.88  
Sea Level Pressure  
Sea Level Pressure 29.99 in    
Wind  
Wind Speed 11 mph (South)    
Max Wind Speed 20 mph    
Max Gust Speed 30 mph    
Visibility 10 miles    
Events      
T = Trace of Precipitation, MM = Missing Value Source: NWS Daily Summary

Daily Weather History Graph

Daily Weather History Graph

Search for Another Location

Airport or City:

Trip Planner

Search our weather history database for the weather conditions in past years. The results will help you decide how hot, cold, wet, or windy it might be!

Date:

Astronomy

May. 26, 2013 Rise Set
Actual Time 6:45 AM CDT 8:48 PM CDT
Civil Twilight 6:18 AM CDT 9:16 PM CDT
Nautical Twilight 5:44 AM CDT 9:50 PM CDT
Astronomical Twilight 5:08 AM CDT 10:26 PM CDT
Moon 10:39 PM CDT (5/26) 8:16 AM CDT (5/26)
Length of Visible Light 14h 58m
Length of Day
14h 02m
Waning Gibbous, 96% of the Moon is Illuminated
May 26
Waning Gibbous
May 31
Last Quarter
Jun 8
New
Jun 16
First Quarter
Jun 23
Full

Hourly Weather History & Observations

Time (CDT) Temp. Heat Index Dew Point Humidity Pressure Visibility Wind Dir Wind Speed Gust Speed Precip Events Conditions
12:15 AM 70.9 °F - 53.1 °F 53% 30.03 in 10.0 mi ENE 6.9 mph - N/A   Clear
12:35 AM 70.7 °F - 52.9 °F 53% 30.04 in 10.0 mi SE 4.6 mph - N/A   Clear
12:55 AM 69.1 °F - 55.0 °F 61% 30.07 in 10.0 mi West 4.6 mph - N/A   Clear
1:15 AM 68.2 °F - 56.3 °F 66% 30.07 in 10.0 mi South 10.4 mph 17.3 mph N/A   Clear
1:35 AM 66.7 °F - 56.7 °F 70% 30.07 in 10.0 mi SSE 8.1 mph 16.1 mph N/A   Clear
1:55 AM 68.0 °F - 54.5 °F 62% 30.05 in 10.0 mi South 11.5 mph 16.1 mph N/A   Clear
2:15 AM 68.0 °F - 54.3 °F 62% 30.03 in 10.0 mi South 12.7 mph - N/A   Clear
2:35 AM 67.1 °F - 56.8 °F 70% 30.02 in 10.0 mi South 13.8 mph 19.6 mph N/A   Clear
2:55 AM 69.3 °F - 55.4 °F 61% 30.01 in 10.0 mi South 16.1 mph 25.3 mph N/A   Clear
3:15 AM 68.5 °F - 56.7 °F 66% 30.01 in 10.0 mi SSE 15.0 mph 25.3 mph N/A   Clear
3:35 AM 68.7 °F - 57.0 °F 66% 30.00 in 10.0 mi SSE 16.1 mph 21.9 mph N/A   Clear
3:55 AM 67.6 °F - 54.5 °F 63% 30.01 in 10.0 mi South 12.7 mph - N/A   Clear
4:15 AM 66.6 °F - 56.3 °F 69% 30.02 in 10.0 mi South 12.7 mph 19.6 mph N/A   Clear
4:35 AM 65.3 °F - 57.9 °F 77% 30.02 in 10.0 mi SSW 11.5 mph 20.7 mph N/A   Clear
4:55 AM 64.8 °F - 58.6 °F 81% 30.01 in 10.0 mi SW 9.2 mph - N/A   Clear
5:15 AM 64.4 °F - 58.5 °F 81% 30.01 in 10.0 mi SW 9.2 mph - N/A   Clear
5:35 AM 64.4 °F - 58.6 °F 82% 30.01 in 10.0 mi SW 10.4 mph - N/A   Clear
5:55 AM 64.0 °F - 58.6 °F 83% 30.02 in 10.0 mi SW 8.1 mph - N/A   Clear
6:15 AM 64.0 °F - 58.5 °F 82% 30.03 in 10.0 mi WSW 9.2 mph - N/A   Clear
6:35 AM 63.9 °F - 58.5 °F 83% 30.03 in 10.0 mi WSW 10.4 mph - N/A   Clear
6:55 AM 63.9 °F - 58.8 °F 84% 30.04 in 10.0 mi SW 9.2 mph - N/A   Clear
7:15 AM 63.5 °F - 58.6 °F 84% 30.04 in 10.0 mi SW 6.9 mph - N/A   Clear
7:35 AM 64.0 °F - 59.0 °F 84% 30.05 in 10.0 mi SSW 5.8 mph - N/A   Clear
7:55 AM 65.5 °F - 59.9 °F 82% 30.04 in 10.0 mi SSW 8.1 mph - N/A   Clear
8:15 AM 67.5 °F - 61.9 °F 82% 30.04 in 10.0 mi South 11.5 mph - N/A   Clear
8:35 AM 69.3 °F - 63.1 °F 81% 30.04 in 10.0 mi South 10.4 mph 17.3 mph N/A   Clear
8:55 AM 70.7 °F - 63.7 °F 78% 30.04 in 10.0 mi South 17.3 mph 24.2 mph N/A   Clear
9:15 AM 72.5 °F - 63.9 °F 74% 30.04 in 10.0 mi South 13.8 mph 23.0 mph N/A   Clear
9:35 AM 72.9 °F - 63.9 °F 73% 30.04 in 10.0 mi South 15.0 mph 23.0 mph N/A   Clear
9:55 AM 73.9 °F - 64.2 °F 72% 30.05 in 10.0 mi South 16.1 mph 24.2 mph N/A   Clear
10:15 AM 75.2 °F - 64.6 °F 69% 30.06 in 10.0 mi South 12.7 mph 20.7 mph N/A   Mostly Cloudy
10:35 AM 76.5 °F - 64.2 °F 66% 30.06 in 10.0 mi South 12.7 mph 20.7 mph N/A   Mostly Cloudy
10:55 AM 77.4 °F - 64.4 °F 64% 30.05 in 10.0 mi South 13.8 mph 21.9 mph N/A   Mostly Cloudy
11:15 AM 78.8 °F - 63.9 °F 60% 30.05 in 10.0 mi South 15.0 mph 24.2 mph N/A   Scattered Clouds
11:35 AM 80.6 °F 82.2 °F 63.9 °F 57% 30.04 in 10.0 mi South 15.0 mph 19.6 mph N/A   Clear
11:55 AM 82.2 °F 83.3 °F 62.8 °F 52% 30.03 in 10.0 mi SSW 15.0 mph 23.0 mph N/A   Clear
12:15 PM 84.0 °F 84.7 °F 62.4 °F 48% 30.03 in 10.0 mi SSW 13.8 mph 20.7 mph N/A   Clear
12:35 PM 85.3 °F 85.7 °F 61.5 °F 45% 30.02 in 10.0 mi SSW 10.4 mph 23.0 mph N/A   Clear
12:55 PM 86.5 °F 86.8 °F 61.3 °F 43% 30.02 in 10.0 mi SSW 12.7 mph 19.6 mph N/A   Clear
1:15 PM 86.7 °F 86.5 °F 60.1 °F 41% 30.02 in 10.0 mi SSW 11.5 mph 20.7 mph N/A   Clear
1:35 PM 89.2 °F 88.2 °F 58.5 °F 35% 30.01 in 10.0 mi SW 11.5 mph 19.6 mph N/A   Clear
1:55 PM 89.8 °F 88.6 °F 58.3 °F 34% 30.00 in 10.0 mi SSW 13.8 mph 19.6 mph N/A   Clear
2:15 PM 91.0 °F 89.4 °F 56.7 °F 31% 29.99 in 10.0 mi SSW 8.1 mph - N/A   Clear
2:35 PM 91.6 °F 90.1 °F 57.4 °F 31% 29.99 in 10.0 mi SSW 9.2 mph 23.0 mph N/A   Clear
2:55 PM 91.6 °F 89.6 °F 55.4 °F 29% 29.98 in 10.0 mi South 11.5 mph 20.7 mph N/A   Clear
3:15 PM 91.9 °F 90.0 °F 55.4 °F 29% 29.97 in 10.0 mi SSW 15.0 mph 20.7 mph N/A   Clear
3:35 PM 93.9 °F 91.7 °F 54.1 °F 26% 29.96 in 10.0 mi SW 12.7 mph 20.7 mph N/A   Clear
3:55 PM 94.6 °F 92.6 °F 54.7 °F 26% 29.95 in 10.0 mi SSW 11.5 mph 19.6 mph N/A   Clear
4:15 PM 94.5 °F 92.3 °F 54.5 °F 26% 29.94 in 10.0 mi South 12.7 mph 23.0 mph N/A   Clear
4:35 PM 95.0 °F 92.7 °F 54.3 °F 25% 29.93 in 10.0 mi South 10.4 mph 23.0 mph N/A   Clear
4:55 PM 94.5 °F 92.3 °F 54.5 °F 26% 29.92 in 10.0 mi SSW 15.0 mph 20.7 mph N/A   Clear
5:15 PM 94.6 °F 92.6 °F 55.0 °F 26% 29.92 in 10.0 mi South 17.3 mph 21.9 mph N/A   Clear
5:35 PM 94.5 °F 92.6 °F 55.9 °F 27% 29.91 in 10.0 mi South 17.3 mph 23.0 mph N/A   Clear
5:55 PM 93.6 °F 92.1 °F 56.7 °F 29% 29.91 in 10.0 mi South 13.8 mph 24.2 mph N/A   Clear
6:15 PM 93.2 °F 91.6 °F 56.1 °F 29% 29.90 in 10.0 mi SSW 10.4 mph 23.0 mph N/A   Clear
6:35 PM 93.2 °F 91.3 °F 55.4 °F 28% 29.90 in 10.0 mi South 11.5 mph 20.7 mph N/A   Clear
6:55 PM 93.2 °F 91.3 °F 55.4 °F 28% 29.90 in 10.0 mi South 12.7 mph 19.6 mph N/A   Clear
7:15 PM 91.6 °F 89.6 °F 54.9 °F 29% 29.90 in 10.0 mi South 15.0 mph 18.4 mph N/A   Clear
7:35 PM 91.6 °F 89.6 °F 55.4 °F 29% 29.89 in 10.0 mi SSE 16.1 mph 25.3 mph N/A   Clear
7:55 PM 90.5 °F 88.7 °F 55.8 °F 31% 29.89 in 10.0 mi SSE 17.3 mph 24.2 mph N/A   Clear
8:15 PM 88.5 °F 87.5 °F 58.1 °F 36% 29.90 in 10.0 mi SSE 19.6 mph 25.3 mph N/A   Clear
8:35 PM 86.5 °F 86.1 °F 59.4 °F 40% 29.90 in 10.0 mi SSE 18.4 mph 29.9 mph N/A   Clear
8:55 PM 85.1 °F 84.8 °F 59.9 °F 42% 29.91 in 10.0 mi SSE 17.3 mph 24.2 mph N/A   Clear
9:15 PM 84.0 °F 84.0 °F 59.9 °F 44% 29.91 in 10.0 mi SSE 17.3 mph 24.2 mph N/A   Clear
9:35 PM 83.3 °F 83.4 °F 59.9 °F 45% 29.92 in 10.0 mi SSE 19.6 mph 25.3 mph N/A   Clear
9:55 PM 82.4 °F 82.9 °F 61.0 °F 48% 29.93 in 10.0 mi SSE 15.0 mph 25.3 mph N/A   Clear
10:15 PM 81.1 °F 82.1 °F 61.9 °F 52% 29.94 in 10.0 mi SSE 16.1 mph 25.3 mph N/A   Clear
10:35 PM 80.1 °F 81.4 °F 62.6 °F 55% 29.94 in 10.0 mi SSE 17.3 mph 26.5 mph N/A   Clear
11:15 PM 78.8 °F - 62.6 °F 57% 29.96 in 10.0 mi SSE 16.1 mph 27.6 mph N/A   Clear
11:35 PM 78.1 °F - 62.6 °F 59% 29.96 in 10.0 mi SSE 15.0 mph 25.3 mph N/A   Clear
11:55 PM 77.4 °F - 62.4 °F 60% 29.96 in 10.0 mi South 13.8 mph 21.9 mph N/A   Clear